COSMOS 1275 DEB, 42156

Orbit data source: Space-Track

COSMOS 1275 DEB, 42156 is space debris in LEO originally from a launch on Thu, 04 Jun 1981 UTC launched from the Plesetsk Missile And Space Complex (PKMTR). Debris objects in space refer to the collection of defunct objects orbiting the Earth. Examples of debris include non-operational satellites, rocket bodies, and fragments generated from explosions, collisions, or faulty payload assembly.

Loading next visibility...
Identifier
42156, 1981-053RU
Orbit
LEO
Country
Flag of CISCIS
Related business
Manufacturer
Unknown
Mission
Spacecraft
Bus & Motor
Unknown
Mass
Unknown
Launch date (UTC)
1981-06-04 (45 years ago)
Launch vehicle
Unknown
Launch site
Plesetsk Missile And Space Complex (PKMTR)
Object type
Payload
Rocket body
Debris
Shape & HBR
Unknown shape, 0.1 m
Radar Cross Section
Small (<0.1 m²)

Expand to show TLE details & history
Last TLE update: 1 week ago

TLE from 1 week ago
0 COSMOS 1275 DEB
1 42156U 81053RU  26200.19817450  .00001252  00000-0  65379-3 0  9993
2 42156  82.7441   2.8281 0052264  84.2163 276.4969 14.13067002633638
Epoch: 2026-07-19T04:45Z
TLE epoch observation values (Epoch: 2026-07-19T04:45:22.276Z)
Latitude
-0.00004°
Longitude
-5.51474°
Altitude
847.764 km
Speed
7.431 km/s
True Right ascension
00h 11m 18s
True Declination
0° 00' 00"
Sunlit
Object was in daylight at epoch
Visualization orbit readout
Latitude
Unknown
Longitude
Unknown
Altitude
Unknown
Speed
Unknown
Apparent Right ascension
Unknown
Apparent Declination
Unknown
Sunlit
N/A
Visualization observer readout
Local Sidereal Time
00:11:11
Azimuth
Unknown
Elevation
Unknown
Doppler factor
Unknown
Orbital elements
Apogee altitude
883.756 km
Perigee altitude
808.243 km
Semi-major axis
7,224.136 km
Eccentricity
0.00523
Inclination
82.7441°
RAAN
2.8281°
Arg. of periapsis
84.2163°
True anomaly
275.90142°
Mean anomaly
276.4969°
Eccentric anomaly
276.1992°
Mean motion
3.5348 °/min
Orbital period
101.84 mins
BSTAR
0.00065379
Loading maneuver chart data...
Computing Atmospheric mass density...
Loading historical data...
Loading historical data...
Loading historical data...
Loading historical data...
Loading historical data...
Loading historical data...
Loading historical data...

Documentation

Showing up to 5 results
|